Regional Weather Roundup
Issued by NWS

Home | Current Version | Previous Version | Graphics & Text | Print | Product List | Glossary On
Versions: 1 2 3 4 5 6 7 8 9 10 11 12 13 14 15 16 17 18 19 20 21 22 23 24 25 26 27 28 29 30 31 32 33 34 35 36 37 38 39 40 41 42 43 44 45 46 47 48 49 50
000
ASUS43 KMPX 191110
RWRMN
WEATHER ROUNDUP FOR MINNESOTA
NATIONAL WEATHER SERVICE TWIN CITIES/CHANHASSEN MN
600 AM CDT SUN APR 19 2015


NOTE: "FAIR" INDICATES FEW OR NO CLOUDS BELOW 12,000 FEET WITH NO
SIGNIFICANT WEATHER AND/OR OBSTRUCTIONS TO VISIBILITY. N/A MEANS
CURRENT SKY AND/OR WEATHER CONDITIONS ARE NOT AVAILABLE.

MNZ060>063-068>070-191200-
   Twin Cities Metro

CITY           SKY/WX    TMP DP  RH WIND       PRES   REMARKS
TWIN CITIES    LGT RAIN  48  42  80 SE13      29.75F
ST PAUL        LGT RAIN  47  42  83 E8        29.77F
CRYSTAL        LGT RAIN  50  42  74 SE15G23   29.74F
BLAINE         LGT RAIN  48  45  87 SE7       29.76F
LAKEVILLE      CLOUDY    46  45  93 E5        29.75F
EDEN PRAIRIE   CLOUDY    49  44  83 SE6       29.75F
SOUTH ST PAUL  LGT RAIN  48  42  80 CALM      29.76F
LAKE ELMO      LGT RAIN  46  39  76 SE3       29.78S
$$
MNZ001>005-007-008-013>017-022>024-027-028-191200-
   Northwest Minnesota

CITY           SKY/WX    TMP DP  RH WIND       PRES   REMARKS
BEMIDJI        LGT RAIN  39  38  97 E6        29.73F
HALLOCK        LGT RAIN  46  45  93 N7        29.73F
ROSEAU         LGT RAIN  45  39  81 CALM      29.75F
WARROAD        DRIZZLE   43  39  87 CALM      29.76F
THIEF RVR FALL CLOUDY    46  43  87 CALM      29.75S
CROOKSTON      LGT RAIN  48  46  93 CALM      29.74F
FOSSTON        RAIN      43  37  81 CALM      29.73F
DETROIT LAKES  DRIZZLE   45  43  93 E3        29.70F
MOORHEAD       LGT RAIN  48  46  93 N6        29.71F
PARK RAPIDS    LGT RAIN  43  40  89 E9        29.70F FOG
MAHNOMEN       DRIZZLE   45  44  97 NE5       29.70F
$$
MNZ006-009>011-018-025>026-191200-
   North Central Minnesota

CITY           SKY/WX    TMP DP  RH WIND       PRES   REMARKS
BAUDETTE       LGT RAIN  40  34  79 SE12      29.77F
FLAG ISLAND    RAIN      39  32  75 SE8       29.76F
INTL FALLS     LGT RAIN  39  36  89 SE5       29.80F
WASKISH        RAIN      41  37  87 CALM      29.76F
BIG FORK       RAIN      39  37  93 E8        29.78F
LONGVILLE      RAIN      39  37  93 E9        29.74F
GRAND RAPIDS   CLOUDY    37  34  87 E6        29.77F
ORR            HVY RAIN  37  36  93 SE5       29.79F
COOK           RAIN      37  36  93 E7        29.82F
WALKER         RAIN      40  39  97 E6        29.72F
$$
MNZ012-019>021-037-191200-
   Northeast Minnesota

CITY           SKY/WX    TMP DP  RH WIND       PRES   REMARKS
DULUTH         LGT RAIN  38  33  82 E15G26    29.79F
ELY            HVY RAIN  36  36 100 NE5       29.83F
HIBBING        RAIN      38  35  89 E7        29.80F FOG
EVELETH        RAIN      36  36 100 NE7       29.81F
DULUTH HARBOR  LGT RAIN  37  36  93 NE22      29.84F
TWO HARBORS    LGT RAIN  39  34  81 NE9       29.82F
SILVER BAY     LGT RAIN  36  34  93 NE8       29.86R
GRAND MARAIS     N/A     40  28  62 E10G21    29.94F
G MARAIS ARPRT CLOUDY    37  21  52 E9G16     29.92S
$$
MNZ029>031-032-039>041-046>048-054>057-064-191200-
   West Central Minnesota

CITY           SKY/WX    TMP DP  RH WIND       PRES   REMARKS
FERGUS FALLS   CLOUDY    45  45 100 N7        29.69S FOG
WHEATON        CLOUDY    45  45 100 NW12      29.70F
MORRIS         RAIN      48  48 100 W10       29.66S VSB 3/4
ALEXANDRIA     LGT RAIN  49  48  97 SE9       29.66F FOG
ELBOW LAKE     FOG       48  48 100 W10       29.65S VSB 1/2
WADENA         DRIZZLE   43  43 100 E10       29.66F
GLENWOOD       RAIN      52  52 100 S13       29.66F
APPLETON       RAIN      52  50  93 W10       29.67S
BENSON         CLOUDY    55  52  88 SW8       29.65F FOG
ORTONVILLE     DRIZZLE   48  46  93 NW13      29.68S
MADISON        CLOUDY    52  48  87 NW10      29.67S FOG
WILLMAR        CLOUDY    54  54 100 SE9       29.68F FOG
$$
MNZ033>034-036-042>043-049>051-058-059-191200-
   Central Minnesota

CITY           SKY/WX    TMP DP  RH WIND       PRES   REMARKS
ST CLOUD       CLOUDY    47  44  90 SE12      29.71F
SAUK CENTRE    CLOUDY    47  46  97 SE12G18   29.67F
PAYNESVILLE    LGT RAIN  47  47 100 E8        29.69F
AITKIN         MIX PCPN  39  36  87 E7        29.74F
PINE RIVER     LGT RAIN  39  39 100 E12       29.75F
BRAINERD       LGT RAIN  41  40  96 SE8       29.72F
STAPLES        DRIZZLE   43  43 100 E9        29.68F
LONG PRAIRIE   DRIZZLE   45  45 100 E9G16     29.68F
LITTLE FALLS   DRIZZLE   43  41  93 SE10G17   29.70F
LITCHFIELD     RAIN      52  52 100 SE9G16    29.70F
BUFFALO        DRIZZLE   48  44  87 SE8       29.73F
MAPLE LAKE     CLOUDY    49  47  93 SE8       29.73F
$$
MNZ037-044-045-052-053-191200-
   East Central Minnesota

CITY           SKY/WX    TMP DP  RH WIND       PRES   REMARKS
PRINCETON      LGT RAIN  46  43  87 E6        29.75F
MORA           RAIN      37  36  93 CALM      29.78F
CAMBRIDGE      LGT RAIN  46  37  71 CALM      29.75S
RUSH CITY      LGT RAIN  43  40  90 CALM      29.76F
MOOSE LAKE     LGT RAIN  36  34  93 CALM      29.77F
HINCKLEY       RAIN      43  41  93 CALM      29.77F
CLOQUET        LGT RAIN  36  34  93 E9G16     29.78F
MCGREGOR       CLOUDY    37  36  93 E9        29.77F
$$
MNZ071>073-080-081-089-090-097-098-191200-
   Southwest Minnesota

CITY           SKY/WX    TMP DP  RH WIND       PRES   REMARKS
MONTEVIDEO     CLOUDY    55  55 100 SW6       29.67F FOG
GRANITE FALLS  CLOUDY    54  53  97 S8        29.69S
CANBY          MOCLDY    55  52  91 W13       29.68S
MARSHALL       CLOUDY    55  52  88 SW12      29.67F
REDWOOD FALLS  CLOUDY    55  54  96 S9        29.68F FOG
OLIVIA         LGT RAIN  52  50  93 S7        29.67F
PIPESTONE      LGT RAIN  55  54  94 W9        29.71R
WINDOM         CLOUDY    55  54  94 S7        29.71F
WORTHINGTON    CLOUDY    54  52  94 SW13      29.71F
JACKSON        FOG       54  52  94 S5        29.72F VSB 1
TRACY          CLOUDY    56  55  94 SW9       29.69S FOG
SLAYTON        MOCLDY    54  54 100 SW13      29.70F FOG
$$
MNZ065>067-074>077-082>085-091>093-191200-
   South Central Minnesota

CITY           SKY/WX    TMP DP  RH WIND       PRES   REMARKS
MANKATO        CLOUDY    52  46  82 S12       29.73F
NEW ULM        CLOUDY    54  54 100 SE8       29.71S FOG
ST JAMES       LGT RAIN  55  54  94 SE6       29.72F
FAIRMONT       CLOUDY    54  45  71 S8        29.72S
GLENCOE        LGT RAIN  52  52  98 SE8       29.72F
FARIBAULT      CLOUDY    52  45  76 SE9       29.75F
OWATONNA       CLOUDY    52  45  76 SE12      29.74F
ALBERT LEA     CLOUDY    54  48  82 S9        29.75S
$$
MNZ078>079-086>088-094>096-191200-
   Southeast Minnesota

CITY           SKY/WX    TMP DP  RH WIND       PRES   REMARKS
ROCHESTER      CLOUDY    49  43  80 SE12      29.76F
RED WING       LGT RAIN  50  39  66 SE10      29.76F
STANTON        RAIN      50  44  77 SE8       29.74F
DODGE CENTER   CLOUDY    50  45  81 S12       29.76S
WINONA         CLOUDY    50  37  62 SE7       29.80F
AUSTIN         CLOUDY    52  45  76 S7        29.75F
PRESTON        LGT RAIN  49  40  71 SE6       29.77F
$$
ABBREVIATIONS USED IN REMARKS
   TC - TEMPERATURES IN CELSIUS
  WCI - WIND CHILL INDEX
   HX - HEAT INDEX
  VSB - VISIBILITY
$$


USA.gov is the U.S. government's official web portal to all federal, state and local government web resources and services.